Weather History for Beach, ND

Change the Weather History Date:

Tuesday, January 22, 2013

  Actual Average (KGDV) Record (KGDV)
Temperature  
Mean Temperature 12 °F -  
Max Temperature 19 °F 23 °F 44 °F (2007)
Min Temperature 6 °F 6 °F -23 °F (2003)
Degree Days  
Heating Degree Days 52    
Moisture  
Dew Point 8 °F    
Average Humidity 83    
Maximum Humidity 92    
Minimum Humidity 73    
Precipitation  
Precipitation 0.00 in - - ()
Sea Level Pressure  
Sea Level Pressure 30.05 in    
Wind  
Wind Speed 8 mph (WSW)    
Max Wind Speed 15 mph    
Max Gust Speed -    
Visibility 10 miles    
Events      
Averages and records for this station are not official NWS values.
T = Trace of Precipitation, MM = Missing Value Source: NWS Daily Summary

Daily Weather History Graph

Daily Weather History Graph

Search for Another Location

Airport:

Trip Planner

Search our weather history database for the weather conditions in past years. The results will help you decide how hot, cold, wet, or windy it might be!

Date:

Astronomy

Jan. 22, 2013 Rise Set
Actual Time 7:31 AM MST 4:44 PM MST
Civil Twilight 6:57 AM MST 5:17 PM MST
Nautical Twilight 6:20 AM MST 5:55 PM MST
Astronomical Twilight 5:44 AM MST 6:31 PM MST
Moon 1:06 PM MST (1/22) 3:57 AM MST (1/22)
Length of Visible Light 10h 20m
Length of Day
9h 13m
Waxing Gibbous, 83% of the Moon is Illuminated
Jan 22
Waxing Gibbous
Jan 26
Full
Feb 3
Last Quarter
Feb 10
New
Feb 17
First Quarter

Hourly Weather History & Observations

Time (MST) Temp. Windchill Dew Point Humidity Pressure Visibility Wind Dir Wind Speed Gust Speed Precip Events Conditions
12:15 AM 6.8 °F -4.8 °F 1.4 °F 79% 30.08 in 10.0 mi SSE 6.9 mph - N/A   Overcast
12:55 AM 6.8 °F -5.9 °F 1.4 °F 79% 30.07 in 10.0 mi SE 8.1 mph - N/A   Overcast
1:15 AM 6.8 °F -5.9 °F 1.4 °F 79% 30.07 in 10.0 mi SSE 8.1 mph - N/A   Overcast
1:35 AM 6.8 °F -5.9 °F 1.4 °F 79% 30.07 in 10.0 mi SSE 8.1 mph - N/A   Overcast
1:55 AM 6.8 °F -4.8 °F 3.2 °F 85% 30.08 in 10.0 mi SSE 6.9 mph - N/A   Overcast
2:15 AM 6.8 °F -5.9 °F 3.2 °F 85% 30.07 in 10.0 mi SSE 8.1 mph - N/A   Overcast
2:35 AM 6.8 °F -3.5 °F 3.2 °F 85% 30.07 in 10.0 mi SSE 5.8 mph - N/A   Overcast
2:55 AM 6.8 °F -3.5 °F 3.2 °F 85% 30.07 in 10.0 mi SE 5.8 mph - N/A   Overcast
3:15 AM 6.8 °F -2.0 °F 3.2 °F 85% 30.06 in 10.0 mi South 4.6 mph - N/A   Overcast
3:35 AM 6.8 °F -3.5 °F 3.2 °F 85% 30.06 in 10.0 mi SE 5.8 mph - N/A   Overcast
3:55 AM 6.8 °F -4.8 °F 3.2 °F 85% 30.05 in 10.0 mi SSE 6.9 mph - N/A   Overcast
4:15 AM 6.8 °F -3.5 °F 3.2 °F 85% 30.05 in 10.0 mi SE 5.8 mph - N/A   Overcast
4:35 AM 6.8 °F -4.8 °F 5.0 °F 92% 30.04 in 10.0 mi SSE 6.9 mph - N/A   Overcast
4:55 AM 6.8 °F -2.0 °F 3.2 °F 85% 30.04 in 10.0 mi SSE 4.6 mph - N/A   Overcast
5:15 AM 6.8 °F -3.5 °F 5.0 °F 92% 30.05 in 10.0 mi SSE 5.8 mph - N/A   Overcast
5:35 AM 8.6 °F -2.6 °F 5.0 °F 85% 30.05 in 10.0 mi SE 6.9 mph - N/A   Overcast
5:55 AM 8.6 °F -2.6 °F 5.0 °F 85% 30.05 in 10.0 mi SSE 6.9 mph - N/A   Overcast
6:15 AM 8.6 °F -1.3 °F 5.0 °F 85% 30.05 in 10.0 mi SSE 5.8 mph - N/A   Overcast
6:35 AM 8.6 °F -3.7 °F 5.0 °F 85% 30.05 in 10.0 mi SSE 8.1 mph - N/A   Overcast
6:55 AM 8.6 °F -3.7 °F 5.0 °F 85% 30.04 in 10.0 mi South 8.1 mph - N/A   Overcast
7:15 AM 10.4 °F -2.4 °F 6.8 °F 85% 30.04 in 10.0 mi South 9.2 mph - N/A   Overcast
7:35 AM 10.4 °F -2.4 °F 6.8 °F 85% 30.04 in 10.0 mi South 9.2 mph - N/A   Overcast
7:55 AM 10.4 °F -2.4 °F 6.8 °F 85% 30.04 in 10.0 mi South 9.2 mph - N/A   Overcast
8:15 AM 10.4 °F -1.5 °F 6.8 °F 85% 30.03 in 10.0 mi South 8.1 mph - N/A   Overcast
8:35 AM 12.2 °F -1.8 °F 8.6 °F 85% 30.03 in 10.0 mi SSW 11.5 mph - N/A   Overcast
8:55 AM 14.0 °F 3.9 °F 8.6 °F 79% 30.04 in 10.0 mi SSW 6.9 mph - N/A   Overcast
9:15 AM 14.0 °F 2.0 °F 8.6 °F 79% 30.04 in 10.0 mi SSW 9.2 mph - N/A   Overcast
9:35 AM 14.0 °F 5.1 °F 10.4 °F 86% 30.04 in 10.0 mi SSW 5.8 mph - N/A   Overcast
9:55 AM 15.8 °F 5.1 °F 10.4 °F 79% 30.03 in 10.0 mi SSW 8.1 mph - N/A   Overcast
10:15 AM 15.8 °F 5.1 °F 10.4 °F 79% 30.03 in 10.0 mi SW 8.1 mph - N/A   Overcast
10:35 AM 17.6 °F 5.7 °F 10.4 °F 73% 30.04 in 10.0 mi SW 10.4 mph - N/A   Mostly Cloudy
10:55 AM 17.6 °F 8.2 °F 10.4 °F 73% 30.04 in 10.0 mi WSW 6.9 mph - N/A   Scattered Clouds
11:15 AM 17.6 °F 6.4 °F 10.4 °F 73% 30.04 in 10.0 mi WSW 9.2 mph - N/A   Mostly Cloudy
11:35 AM 17.6 °F 6.4 °F 10.4 °F 73% 30.03 in 10.0 mi West 9.2 mph - N/A   Scattered Clouds
11:55 AM 17.6 °F 4.3 °F 10.4 °F 73% 30.02 in 10.0 mi West 12.7 mph - N/A   Clear
12:15 PM 17.6 °F 4.3 °F 12.2 °F 79% 30.01 in 10.0 mi WSW 12.7 mph - N/A   Clear
12:35 PM 19.4 °F 7.2 °F 12.2 °F 74% 30.01 in 10.0 mi West 11.5 mph - N/A   Clear
12:55 PM 19.4 °F 5.5 °F 12.2 °F 74% 30.01 in 10.0 mi West 15.0 mph - N/A   Clear
1:15 PM 19.4 °F 6.0 °F 14.0 °F 80% 30.01 in 10.0 mi West 13.8 mph - N/A   Clear
1:35 PM 19.4 °F 6.6 °F 14.0 °F 80% 30.02 in 10.0 mi West 12.7 mph - N/A   Clear
1:55 PM 19.4 °F 6.0 °F 14.0 °F 80% 30.01 in 10.0 mi West 13.8 mph - N/A   Clear
2:15 PM 19.4 °F 7.2 °F 14.0 °F 80% 30.01 in 10.0 mi West 11.5 mph - N/A   Clear
2:35 PM 19.4 °F 7.9 °F 14.0 °F 80% 30.02 in 10.0 mi WNW 10.4 mph - N/A   Clear
2:55 PM 19.4 °F 8.6 °F 14.0 °F 80% 30.02 in 10.0 mi WNW 9.2 mph - N/A   Clear
3:15 PM 17.6 °F 5.7 °F 12.2 °F 79% 30.02 in 10.0 mi WNW 10.4 mph - N/A   Clear
3:35 PM 15.8 °F 4.2 °F 10.4 °F 79% 30.03 in 10.0 mi WNW 9.2 mph - N/A   Clear
3:55 PM 15.8 °F 4.2 °F 10.4 °F 79% 30.03 in 10.0 mi WNW 9.2 mph - N/A   Clear
4:15 PM 15.8 °F 6.1 °F 10.4 °F 79% 30.04 in 10.0 mi WNW 6.9 mph - N/A   Clear
4:35 PM 15.8 °F 3.4 °F 10.4 °F 79% 30.03 in 10.0 mi West 10.4 mph - N/A   Partly Cloudy
4:55 PM 14.0 °F 2.9 °F 10.4 °F 86% 30.04 in 10.0 mi WNW 8.1 mph - N/A   Partly Cloudy
5:15 PM 14.0 °F 2.0 °F 10.4 °F 86% 30.04 in 10.0 mi NW 9.2 mph - N/A   Clear
5:35 PM 12.2 °F -1.0 °F 8.6 °F 85% 30.05 in 10.0 mi NW 10.4 mph - N/A   Clear
5:55 PM 12.2 °F -1.0 °F 8.6 °F 85% 30.05 in 10.0 mi NW 10.4 mph - N/A   Clear
6:15 PM 14.0 °F 1.2 °F 8.6 °F 79% 30.04 in 10.0 mi WNW 10.4 mph - N/A   Clear
6:35 PM 14.0 °F 0.5 °F 10.4 °F 86% 30.05 in 10.0 mi WNW 11.5 mph - N/A   Clear
6:55 PM 14.0 °F -0.2 °F 10.4 °F 86% 30.05 in 10.0 mi NW 12.7 mph - N/A   Clear
7:15 PM 14.0 °F 2.0 °F 10.4 °F 86% 30.06 in 10.0 mi NNW 9.2 mph - N/A   Clear
7:35 PM 14.0 °F 1.2 °F 8.6 °F 79% 30.05 in 10.0 mi NW 10.4 mph - N/A   Clear
7:55 PM 12.2 °F -0.2 °F 8.6 °F 85% 30.06 in 10.0 mi NW 9.2 mph - N/A   Clear
8:15 PM 10.4 °F -0.4 °F 6.8 °F 85% 30.07 in 10.0 mi West 6.9 mph - N/A   Clear
8:35 PM 10.4 °F -1.5 °F 6.8 °F 85% 30.08 in 10.0 mi WNW 8.1 mph - N/A   Clear
8:55 PM 8.6 °F -1.3 °F 6.8 °F 92% 30.08 in 10.0 mi WNW 5.8 mph - N/A   Clear
9:15 PM 8.6 °F -3.7 °F 5.0 °F 85% 30.08 in 10.0 mi NNW 8.1 mph - N/A   Clear
9:35 PM 6.8 °F -4.8 °F 5.0 °F 92% 30.09 in 10.0 mi NNW 6.9 mph - N/A   Clear
9:55 PM 6.8 °F -6.9 °F 5.0 °F 92% 30.10 in 10.0 mi North 9.2 mph - N/A   Clear
10:15 PM 8.6 °F 0.1 °F 5.0 °F 85% 30.10 in 10.0 mi NNW 4.6 mph - N/A   Clear
10:35 PM 8.6 °F - 5.0 °F 85% 30.12 in 10.0 mi Calm Calm - N/A   Partly Cloudy
10:55 PM 8.6 °F 2.0 °F 5.0 °F 85% 30.12 in 10.0 mi WNW 3.5 mph - N/A   Clear
11:15 PM 8.6 °F -3.7 °F 5.0 °F 85% 30.12 in 10.0 mi WNW 8.1 mph - N/A   Partly Cloudy
11:35 PM 6.8 °F -3.5 °F 5.0 °F 92% 30.12 in 10.0 mi WNW 5.8 mph - N/A   Scattered Clouds
11:55 PM 6.8 °F -5.9 °F 3.2 °F 85% 30.13 in 10.0 mi NW 8.1 mph - N/A   Overcast